EHI
1 0 0 0 0 0 0 0 1 1 1 0 0 0 0 0 0 0 1 4 8 12 16 16 13 11 8 8 10 10 7 4 3 1 0 0 0 0 0 0 0 0 0
1 0 0 0 0 0 0 0 0 0 0 0 0 0 0 0 0 0 0 2 6 9 13 15 15 13 11 12 13 11 6 4 3 2 0 0 0 0 0 0 0 0 0
1 0 0 0 0 0 0 0 0 0 0 0 0 0 0 0 0 0 0 1 2 4 7 11 13 12 12 14 14 10 5 3 3 2 1 0 0 0 0 0 0 0 0
2 1 0 0 0 0 0 0 0 0 0 0 1 0 0 0 0 0 0 0 0 1 2 4 6 7 8 10 10 6 3 1 2 3 2 1 0 0 0 0 0 0 0
3 1 0 1 1 1 0 0 0 0 0 0 0 0 0 0 0 0 0 0 0 0 0 0 1 2 2 4 4 2 1 0 1 3 4 3 2 1 1 0 0 0 0
3 2 0 1 2 1 0 0 0 0 0 0 0 0 0 0 0 0 0 0 0 0 0 0 0 0 0 1 2 1 0 0 1 2 4 4 3 1 1 0 0 0 0
3 2 1 1 1 1 0 0 0 0 0 0 0 0 0 0 0 0 0 0 0 0 0 0 0 0 0 1 1 1 0 0 1 2 3 4 3 2 0 0 0 0 0
2 2 1 1 0 0 0 0 0 0 0 0 0 0 0 0 0 0 0 0 0 0 0 0 0 1 0 0 0 1 1 1 1 3 3 3 2 1 0 0 0 0 0
1 1 1 0 0 0 0 0 0 0 0 0 0 0 0 0 0 0 0 0 0 0 0 0 0 0 0 0 0 0 0 1 2 3 3 3 1 0 0 0 0 0 0
1 0 0 0 0 0 0 0 0 0 0 0 0 0 0 0 0 0 0 0 0 0 0 0 0 0 0 0 0 0 0 0 1 2 1 1 0 0 0 0 0 0 0
1 0 0 0 0 0 0 0 0 0 0 0 0 0 0 0 0 0 0 0 0 0 0 0 0 0 0 0 0 0 0 0 0 0 0 0 0 0 0 0 0 0 0
1 0 0 0 0 0 0 0 0 0 0 0 0 0 0 0 0 0 0 0 0 0 0 0 0 0 0 0 0 0 0 0 0 0 0 0 0 0 0 0 0 0 0
0 0 0 0 0 0 0 0 0 0 0 0 0 0 0 0 0 0 0 0 0 0 0 0 0 0 0 0 0 0 0 0 0 0 0 0 0 0 0 0 0 0 0
0 0 0 0 0 0 0 0 0 0 0 0 0 0 0 0 0 0 0 0 0 0 0 0 0 0 0 0 0 0 0 0 0 0 0 0 0 0 0 0 0 0 0
0 0 0 0 0 0 0 0 0 0 0 0 0 0 0 0 0 0 0 0 0 0 0 0 0 0 0 0 0 0 0 0 0 0 0 0 0 0 0 0 0 0 0
0 0 0 0 0 0 0 0 0 0 0 0 0 0 0 0 0 0 0 0 0 0 0 0 0 0 0 0 0 0 0 0 0 0 0 0 0 0 0 0 0 0 0
0 0 0 0 0 0 0 0 0 0 0 0 0 0 0 0 0 0 0 0 0 0 0 0 0 0 0 0 0 0 0 0 0 0 0 0 0 0 0 0 0 0 0
0 0 0 0 0 0 0 0 0 0 0 0 0 0 0 0 0 0 0 0 0 0 0 0 0 0 0 0 0 0 0 0 0 0 0 0 0 0 0 0 0 0 0
0 0 0 0 0 0 0 0 0 0 0 0 0 0 0 0 0 0 0 0 0 0 0 0 0 0 0 0 0 0 0 0 0 0 0 0 0 0 0 0 0 0 0
0 0 0 0 0 0 0 0 0 0 0 0 0 0 0 0 0 0 0 0 0 0 0 0 0 0 0 0 0 0 0 0 0 0 0 0 0 0 0 0 0 0 0
0 0 0 0 0 0 0 0 0 0 0 0 0 0 0 0 0 0 0 0 0 0 0 0 0 0 0 0 0 0 0 0 0 0 0 0 0 0 0 0 0 0 0
0 0 0 0 0 0 0 0 0 0 0 0 0 0 0 0 0 0 0 0 0 0 0 0 0 0 0 0 0 0 0 0 0 0 0 0 0 0 0 0 0 0 0
0 0 0 0 0 0 0 0 0 0 0 0 0 0 0 0 0 0 0 0 0 0 0 0 0 0 0 0 0 0 0 0 0 0 0 0 0 0 0 0 0 0 0
0 0 0 0 0 0 0 0 0 0 0 0 0 0 0 0 0 0 0 0 0 0 0 0 0 0 0 0 0 0 0 0 0 0 0 0 0 0 0 0 0 0 0
0 0 0 0 0 0 0 0 0 0 0 0 0 0 0 0 0 0 0 0 0 0 0 0 0 0 0 0 0 0 0 0 0 0 0 0 0 0 0 0 0 0 0
0 0 0 0 0 0 0 0 0 0 0 0 0 0 0 0 0 0 0 0 0 0 0 0 0 0 0 0 0 0 0 0 0 0 0 0 0 0 0 0 0 0 0
Wind_Speed
1 1 1 1 1 1 2 2 2 3 3 4 4 4 4 4 3 3 3 9 11 13 14 15 15 15 16 15 15 15 15 15 14 13 13 13 13 13 12 12 12 11 11
1 1 1 1 1 1 1 2 2 2 2 2 3 3 3 3 3 3 4 6 10 12 13 14 14 14 15 15 14 14 14 13 13 13 13 13 13 13 13 12 12 12 11
2 1 1 0 1 1 1 1 1 1 2 2 3 3 3 3 3 4 4 3 4 9 12 13 13 14 13 14 14 13 13 13 13 12 13 13 13 13 13 13 12 12 12
2 2 1 0 1 0 0 0 0 1 1 2 2 2 2 2 3 4 4 4 3 4 7 11 12 12 12 13 13 13 13 13 13 12 12 13 13 13 13 13 13 12 12
2 2 1 0 1 1 1 1 1 0 1 2 3 2 2 3 3 4 4 4 4 4 3 6 10 10 11 11 12 12 12 12 12 12 13 13 13 13 13 13 13 13 13
1 1 0 0 1 1 1 1 1 1 1 2 3 3 3 3 3 3 3 2 2 3 3 3 3 5 8 9 9 10 11 11 10 10 11 12 13 13 13 13 13 13 13
2 1 0 0 1 0 1 1 1 2 2 2 2 3 3 3 2 1 1 0 1 1 2 2 2 2 2 5 7 8 9 9 9 9 9 9 10 11 12 13 13 13 13
1 1 1 0 0 0 1 1 1 1 1 2 0 1 3 4 3 2 1 0 1 1 1 1 2 2 2 1 3 6 7 8 9 10 9 8 8 8 9 11 13 12 12
1 2 1 1 1 1 0 1 0 1 1 1 0 1 0 2 3 3 2 2 1 1 1 1 1 1 1 1 2 4 5 6 7 8 7 7 7 7 7 8 9 10 10
1 2 1 1 1 1 1 1 1 0 1 1 1 0 1 2 1 2 3 2 3 2 1 2 1 1 1 1 1 2 3 4 4 5 6 6 7 7 7 7 7 9 10
1 1 1 1 1 1 0 0 0 0 1 1 1 1 1 1 1 1 3 3 3 2 2 1 0 0 1 1 2 2 3 3 3 4 4 5 6 6 7 7 7 8 9
0 1 1 1 0 0 0 1 1 1 1 1 1 1 1 1 1 1 2 2 3 3 3 1 0 0 1 1 2 3 2 3 3 3 3 4 5 6 6 6 7 8 8
0 1 0 0 0 0 1 1 1 1 1 1 1 1 1 2 2 2 1 1 2 2 2 2 1 1 1 1 1 2 2 2 3 3 3 4 4 5 5 5 6 6 6
1 1 0 0 0 1 1 1 1 1 1 1 1 1 1 2 1 2 2 1 1 2 2 3 1 1 1 1 2 2 2 3 3 3 4 4 4 5 5 5 5 5 4
1 1 1 1 0 0 0 0 0 1 1 1 1 1 1 2 1 1 1 2 2 2 2 3 2 1 1 1 2 1 2 4 4 4 4 4 4 4 5 5 5 4 4
1 1 0 1 1 1 0 0 0 1 1 1 1 1 1 1 1 1 1 1 2 2 2 2 2 2 2 2 3 2 2 5 5 5 5 5 5 5 5 5 5 4 4
1 1 1 0 0 0 0 0 0 1 1 1 2 1 2 2 1 1 1 1 1 2 3 3 1 1 2 2 2 2 2 2 2 5 5 5 4 4 5 5 4 4 4
1 1 1 0 0 0 0 0 1 1 1 1 2 2 2 2 2 1 1 1 1 2 2 3 2 1 2 3 2 2 2 2 2 4 5 5 5 5 5 5 5 4 4
1 1 0 0 0 1 1 1 1 1 1 2 2 2 2 2 2 2 2 2 2 2 2 2 2 2 2 2 2 2 2 1 2 2 4 5 6 6 6 6 6 5 5
0 0 0 0 1 1 1 1 1 1 1 2 2 2 2 2 2 3 2 2 2 2 1 1 2 2 2 2 1 2 2 1 2 1 2 2 4 5 6 7 7 6 6
1 0 0 1 1 1 1 1 1 1 1 2 3 2 2 3 3 3 2 2 2 2 2 2 2 2 2 1 2 2 2 2 2 1 1 1 1 2 3 5 7 8 8
1 1 1 1 1 1 2 2 2 1 2 2 3 3 3 3 4 5 5 4 3 3 3 2 2 3 3 3 2 2 1 1 2 1 1 2 2 2 3 3 6 8 9
1 1 2 1 1 3 4 3 3 1 1 2 2 3 3 3 4 3 4 5 4 4 6 4 4 5 4 3 3 2 2 3 3 2 2 2 2 3 3 4 8 9 10
0 1 1 2 2 4 4 4 3 1 1 2 2 2 2 4 4 3 2 3 3 4 4 4 4 5 4 3 3 3 3 2 2 2 2 2 2 2 3 3 7 9 10
1 1 2 1 2 4 5 4 2 1 1 3 3 3 2 2 5 3 1 2 4 5 5 4 5 6 6 6 4 2 1 1 2 2 2 2 2 1 2 3 5 9 10
1 2 2 2 2 3 4 4 2 0 1 2 3 3 4 4 5 4 2 2 4 5 5 5 4 4 4 5 6 5 4 3 2 2 2 2 2 1 1 2 2 3 5
Wind_Direction
174 184 200 206 215 223 227 236 241 247 250 256 255 248 243 237 226 217 241 241 231 223 220 217 216 219 220 216 213 211 209 209 209 210 211 210 210 209 210 209 206 206 206
164 169 177 191 221 234 240 239 242 241 253 253 264 264 254 238 231 224 226 240 235 228 221 222 218 218 221 218 214 213 212 211 211 212 213 213 213 212 211 211 210 209 208
145 141 144 223 261 260 257 254 268 248 271 277 277 273 262 244 234 227 227 228 245 238 225 223 219 217 217 217 215 213 212 212 212 214 215 215 214 213 214 211 211 210 209
133 121 120 268 285 303 298 236 258 291 290 292 291 283 270 262 258 240 230 226 230 245 236 227 222 220 219 223 223 219 216 216 217 217 219 220 217 215 216 214 212 210 210
118 115 135 266 328 4 346 322 359 281 294 300 288 275 270 266 258 256 243 230 218 224 230 233 228 226 225 228 226 224 221 221 222 222 223 223 220 215 215 215 214 212 212
115 109 136 15 27 34 354 345 338 342 291 291 300 303 288 275 264 253 248 231 212 215 218 227 234 239 235 231 227 226 225 224 224 226 227 226 224 217 213 215 217 216 215
120 122 142 50 27 56 336 343 353 343 322 335 343 325 317 309 298 276 263 215 218 227 209 208 215 219 231 228 227 227 229 229 225 224 225 226 225 218 215 215 217 216 215
116 141 132 134 31 42 8 10 27 360 319 358 20 333 330 334 342 338 322 277 286 312 272 245 210 205 210 217 227 232 232 233 231 228 226 221 218 218 220 220 220 219 214
81 75 91 102 83 87 23 331 81 136 280 315 49 147 207 282 310 324 344 347 343 330 300 281 236 213 213 217 234 242 239 230 231 229 225 220 213 213 215 219 221 217 212
82 87 85 115 110 96 66 355 44 175 155 299 310 266 202 212 256 311 325 334 331 315 300 306 296 243 202 197 221 225 235 228 229 234 231 219 214 213 213 216 222 223 220
44 73 80 86 74 73 91 250 288 286 180 204 236 271 302 315 227 226 289 315 327 313 302 284 261 237 215 205 230 235 229 217 220 227 230 223 217 219 221 226 228 226 224
19 48 101 104 81 55 300 284 265 250 235 223 233 224 211 221 248 227 251 291 303 301 305 303 278 269 243 223 235 233 231 220 211 212 222 226 228 225 226 228 234 230 226
285 279 105 91 12 299 287 315 309 272 254 233 239 248 235 232 227 212 219 262 287 294 303 307 279 258 269 267 248 227 232 227 212 216 219 220 227 225 224 225 232 230 227
218 226 175 160 297 302 311 345 332 293 278 240 254 259 262 265 243 210 199 201 291 303 301 286 291 242 240 245 242 224 238 227 218 220 219 215 219 222 224 223 223 219 219
205 168 159 162 246 261 281 358 323 305 317 312 290 286 276 276 271 250 210 191 193 264 281 278 285 290 277 272 245 234 241 230 223 221 220 213 209 210 212 219 212 211 211
213 162 196 211 232 247 293 76 314 328 7 338 327 336 304 288 303 294 247 221 197 206 249 264 259 278 285 280 257 247 244 239 229 219 213 210 206 207 207 206 201 200 200
225 197 207 242 225 306 353 63 307 337 2 331 328 334 308 297 308 303 288 256 232 202 236 270 271 285 277 273 282 275 257 249 234 222 218 211 203 204 206 201 199 203 202
295 260 214 137 38 20 48 89 310 324 303 308 307 318 311 323 316 299 290 272 255 227 213 251 272 274 260 259 260 264 264 253 237 230 222 215 206 206 208 201 195 197 199
342 321 313 134 237 250 273 271 244 262 269 267 269 279 292 314 316 303 290 279 268 259 217 219 253 265 265 266 275 276 271 284 256 234 222 221 216 211 209 203 200 198 198
300 318 309 249 267 284 295 280 264 300 299 292 285 280 278 268 272 283 289 280 275 267 246 235 251 265 264 265 235 258 284 284 275 259 233 215 216 218 214 209 207 204 202
266 217 111 331 332 324 291 275 276 291 301 309 314 303 280 282 283 280 275 265 264 251 243 243 257 269 268 261 242 237 252 275 279 246 237 234 217 223 223 216 214 211 205
338 4 357 326 332 320 301 293 271 275 281 291 305 308 301 306 304 302 293 275 248 233 235 235 246 245 253 244 232 222 221 234 274 255 193 250 204 225 230 221 219 212 207
3 353 333 327 311 301 303 307 291 272 284 291 293 298 305 313 312 304 305 308 301 269 240 224 232 237 238 231 215 223 221 217 232 232 182 246 225 230 232 227 216 213 212
312 303 305 298 302 303 309 313 308 326 319 308 295 284 281 297 307 299 305 320 313 302 278 240 231 238 237 229 215 221 217 229 265 253 187 225 228 227 236 230 223 215 214
305 295 288 292 292 301 313 315 312 1 333 321 321 319 294 287 308 311 308 309 315 311 305 279 248 243 242 241 218 196 197 191 254 256 202 196 233 233 243 239 229 218 216
283 304 314 303 282 292 313 318 296 150 298 304 318 321 314 298 302 308 289 285 299 300 310 315 302 281 260 250 230 208 201 200 211 246 217 182 209 184 267 260 228 211 214